Location: �perlecques
(50.8057°N, 2.1521°E)
Time: 19:05:41
(UTC+00:00)

VELOX 1 - Pass Details

Date: 28 September 2021
Orbit: 627 x 642 km, 98.3° (Epoch: 21 October)

Event Time Altitude Azimuth Distance (km) Brightness Sun altitude
Exits shadow 02:12:38 20° 96° (E) 1,456 ? -31.9°
Maximum altitude 02:14:17 26° 62° (ENE) 1,263 ? -31.7°
Drops below altitude 10° 02:17:54 10° 7° (N) 2,018 ? -31.3°
Sets 02:20:22 0° 354° (N) 2,929 ? -31.0°
